Notices

What's New in latest Release from April 7th, 2021:

- Updated Glossary, including Speed of Maximum Gust, and Total Hourly Precipitation

- Updated national and regional climate services offices contacts and prices information

- Addition of station inventory lists for 1981-2010, 1971-2000, and 1961-1990 Normals.

If you haven't already, please take our survey and provide feedback about our website: https://eccc.sondage-survey.ca/f/LanguageSelection.aspx?s=442ca660-fcf1-47c0-95a9-59707d6fd709

Hourly Data Report for April 02, 2012

MIRAMICHI RCS
NEW BRUNSWICK

47°00'34.000" N
65°27'54.000" W
33.00 m
8100989
71744
ACQ

Download Data

Hourly Data (April 2012)
Hourly Data Report for April 2, 2012
TIME
LST
Temp Definition
°C
Dew Point Definition
°C
Rel Hum Definition
%
Precip. Amount Definition
mm

Wind Dir Definition
10's deg

Wind Spd Definition
km/h
Visibility Definition
km
Stn Press Definition
kPa
Hmdx Definition


Wind Chill Definition


Weather Definition


00:00 -0.4 -5.3 69   3 9   100.06   -4 LegendNANA
01:00 -1.9 -4.4 83   3 6   100.06   -4 LegendNANA
02:00 -2.2 -3.8 89   1 6   100.02   -5 LegendNANA
03:00 -2.3 -3.5 91   1 4   99.99   -4 LegendNANA
04:00 -2.9 -4.1 91   32 2   99.98   -4 LegendNANA
05:00 -2.8 -4.0 91   24 2   99.99   -4 LegendNANA
06:00 -3.6 -4.7 92   33 4   99.99   -5 LegendNANA
07:00 -2.7 -4.4 88     0   100.02     LegendNANA
08:00 -0.1 -3.6 77   9 2   100.03   -1 LegendNANA
09:00 1.8 -5.4 59   35 4   100.02     LegendNANA
10:00 4.8 -9.9 34   1 7   99.96     LegendNANA
11:00 5.8 -11.8 27   35 13   99.92     LegendNANA
12:00 6.7 -10.4 28   31 9   99.86     LegendNANA
13:00 7.1 -13.2 22   33 11   99.80     LegendNANA
14:00 8.1 -13.1 21   29 15   99.76     LegendNANA
15:00 8.0 -11.1 24   34 11   99.75     LegendNANA
16:00 7.4 -10.2 27   5 13   99.73     LegendNANA
17:00 5.3 -9.7 33   6 17   99.77     LegendNANA
18:00 3.6 -7.9 43   5 13   99.85     LegendNANA
19:00 1.4 -6.5 56   5 4   99.91     LegendNANA
20:00 -0.2 -5.1 69   7 4   99.99   -1 LegendNANA
21:00 -1.7 -6.3 71   32 2   100.02   -2 LegendNANA
22:00 -2.3 -6.0 76   27 4   100.02   -4 LegendNANA
23:00 -1.8 -8.0 63   31 2   100.02   -3 LegendNANA

Notes on Data Quality.

Legend

  • E = Estimated
  • M = Missing
  • NA = Not Available*
  • [empty] = Indicates an unobserved value
Date modified: